Monroe, MI

11:24 AM EDT on October 19, 2017 (GMT -0400)
Custer

Weather History for KTTF - September, 2011

Change the Weather History Date:

Tuesday, September 13, 2011

  Actual Average Record
Temperature  
Mean Temperature 73 °F -  
Max Temperature 82 °F 75 °F 92 °F (1931)
Min Temperature 64 °F 55 °F 35 °F (1975)
Cooling Degree Days 8    
Growing Degree Days 23 (Base 50)    
Moisture  
Dew Point 62 °F    
Average Humidity 67    
Maximum Humidity 94    
Minimum Humidity 48    
Precipitation  
Precipitation 0.00 in - - ()
Sea Level Pressure  
Sea Level Pressure 29.83 in    
Wind  
Wind Speed 11 mph (West)    
Max Wind Speed 18 mph    
Max Gust Speed 25 mph    
Visibility 10 miles    
Events      
Averages and records for this station are not official NWS values.
T = Trace of Precipitation, MM = Missing Value Source: NWS Daily Summary

Daily Weather History Graph

Daily Weather History Graph

Search for Another Location

Airport or City:

Trip Planner

Search our weather history database for the weather conditions in past years. The results will help you decide how hot, cold, wet, or windy it might be!

Date:

Astronomy

Sep. 13, 2011 Rise Set
Actual Time 7:11 AM EDT 7:47 PM EDT
Civil Twilight 6:43 AM EDT 8:15 PM EDT
Nautical Twilight 6:10 AM EDT 8:48 PM EDT
Astronomical Twilight 5:35 AM EDT 9:22 PM EDT
Moon 7:59 PM EDT (9/13) 8:26 AM EDT (9/13)
Length of Visible Light 13h 31m
Length of Day
12h 35m
Full, 99% of the Moon is Illuminated
Sep 13
Full
Sep 20
Last Quarter
Sep 27
New
Oct 3
First Quarter
Oct 11
Full

Hourly Weather History & Observations

Time (EDT) Temp. Heat Index Dew Point Humidity Pressure Visibility Wind Dir Wind Speed Gust Speed Precip Events Conditions
12:12 AM 71.6 °F - 62.6 °F 73% 29.88 in 10.0 mi SSW 8.1 mph - N/A   Clear
12:32 AM 71.6 °F - 62.6 °F 73% 29.87 in 10.0 mi SSW 8.1 mph - N/A   Clear
12:52 AM 71.6 °F - 62.6 °F 73% 29.87 in 10.0 mi SSW 8.1 mph - N/A   Clear
1:12 AM 71.6 °F - 62.6 °F 73% 29.87 in 10.0 mi SW 5.8 mph - N/A   Clear
1:32 AM 69.8 °F - 62.6 °F 78% 29.86 in 10.0 mi SW 6.9 mph - N/A   Clear
2:12 AM 69.8 °F - 62.6 °F 78% 29.86 in 10.0 mi SSW 6.9 mph - N/A   Clear
2:33 AM 69.8 °F - 60.8 °F 73% 29.85 in 10.0 mi SW 9.2 mph - N/A   Clear
2:53 AM 69.8 °F - 60.8 °F 73% 29.84 in 10.0 mi SW 11.5 mph - N/A   Clear
3:13 AM 69.8 °F - 60.8 °F 73% 29.84 in 10.0 mi SW 12.7 mph - N/A   Clear
4:13 AM 69.8 °F - 60.8 °F 73% 29.82 in 10.0 mi SW 13.8 mph 18.4 mph N/A   Clear
4:33 AM 71.6 °F - 59.0 °F 64% 29.82 in 10.0 mi SW 12.7 mph 16.1 mph N/A   Clear
5:14 AM 71.6 °F - 59.0 °F 64% 29.81 in 10.0 mi SW 16.1 mph 25.3 mph N/A   Clear
5:34 AM 71.6 °F - 59.0 °F 64% 29.81 in 10.0 mi SW 13.8 mph 21.9 mph N/A   Clear
5:54 AM 71.6 °F - 59.0 °F 64% 29.80 in 10.0 mi SW 16.1 mph 21.9 mph N/A   Clear
6:14 AM 71.6 °F - 59.0 °F 64% 29.80 in 10.0 mi SW 17.3 mph 23.0 mph N/A   Clear
6:34 AM 69.8 °F - 59.0 °F 68% 29.80 in 10.0 mi SW 15.0 mph 23.0 mph N/A   Clear
6:54 AM 69.8 °F - 60.8 °F 73% 29.80 in 10.0 mi SW 13.8 mph 23.0 mph N/A   Clear
7:14 AM 69.8 °F - 60.8 °F 73% 29.80 in 10.0 mi SW 16.1 mph 21.9 mph N/A   Clear
7:34 AM 69.8 °F - 60.8 °F 73% 29.80 in 10.0 mi SW 12.7 mph 21.9 mph N/A   Clear
7:54 AM 69.8 °F - 60.8 °F 73% 29.80 in 10.0 mi SW 15.0 mph 19.6 mph N/A   Clear
8:14 AM 69.8 °F - 60.8 °F 73% 29.80 in 10.0 mi SW 15.0 mph 21.9 mph N/A   Clear
8:34 AM 71.6 °F - 60.8 °F 69% 29.80 in 10.0 mi SW 13.8 mph 23.0 mph N/A   Clear
8:55 AM 71.6 °F - 60.8 °F 69% 29.79 in 10.0 mi SW 12.7 mph 21.9 mph N/A   Clear
9:15 AM 71.6 °F - 62.6 °F 73% 29.79 in 10.0 mi SW 11.5 mph 21.9 mph N/A   Clear
9:35 AM 71.6 °F - 62.6 °F 73% 29.79 in 10.0 mi SW 16.1 mph 23.0 mph N/A   Clear
9:55 AM 73.4 °F - 62.6 °F 69% 29.79 in 10.0 mi SW 12.7 mph 19.6 mph N/A   Clear
10:15 AM 73.4 °F - 62.6 °F 69% 29.80 in 10.0 mi WSW 15.0 mph 24.2 mph N/A   Clear
11:11 AM 75.2 °F - 62.6 °F 65% 29.79 in 10.0 mi WSW 13.8 mph 21.9 mph N/A   Clear
12:11 PM 77.0 °F - 64.4 °F 65% 29.80 in 10.0 mi West 16.1 mph 21.9 mph N/A   Clear
12:32 PM 78.8 °F - 64.4 °F 61% 29.80 in 10.0 mi WSW 15.0 mph 20.7 mph N/A   Clear
12:52 PM 78.8 °F - 64.4 °F 61% 29.80 in 10.0 mi WSW 18.4 mph 23.0 mph N/A   Clear
1:12 PM 78.8 °F - 64.4 °F 61% 29.79 in 10.0 mi WSW 13.8 mph 19.6 mph N/A   Clear
1:32 PM 80.6 °F 82.3 °F 64.4 °F 58% 29.79 in 10.0 mi WSW 13.8 mph 19.6 mph N/A   Clear
1:53 PM 80.6 °F 82.3 °F 64.4 °F 58% 29.79 in 10.0 mi West 12.7 mph 23.0 mph N/A   Scattered Clouds
2:13 PM 80.6 °F 82.3 °F 64.4 °F 58% 29.79 in 10.0 mi West 13.8 mph 18.4 mph N/A   Mostly Cloudy
2:33 PM 80.6 °F 82.3 °F 64.4 °F 58% 29.79 in 10.0 mi West 13.8 mph - N/A   Scattered Clouds
2:53 PM 80.6 °F 82.3 °F 64.4 °F 58% 29.79 in 10.0 mi WNW 11.5 mph - N/A   Mostly Cloudy
3:13 PM 80.6 °F 82.7 °F 66.2 °F 61% 29.79 in 10.0 mi WNW 9.2 mph - N/A   Mostly Cloudy
3:33 PM 80.6 °F 82.3 °F 64.4 °F 58% 29.79 in 10.0 mi West 12.7 mph 17.3 mph N/A   Mostly Cloudy
3:53 PM 82.4 °F 82.9 °F 60.8 °F 48% 29.79 in 10.0 mi West 13.8 mph 19.6 mph N/A   Scattered Clouds
4:13 PM 82.4 °F 82.9 °F 60.8 °F 48% 29.79 in 10.0 mi West 12.7 mph 18.4 mph N/A   Scattered Clouds
4:34 PM 82.4 °F 82.9 °F 60.8 °F 48% 29.80 in 10.0 mi West 13.8 mph 19.6 mph N/A   Scattered Clouds
4:54 PM 80.6 °F 81.5 °F 60.8 °F 51% 29.80 in 10.0 mi West 16.1 mph 19.6 mph N/A   Clear
5:14 PM 80.6 °F 81.1 °F 59.0 °F 48% 29.81 in 10.0 mi West 12.7 mph 18.4 mph N/A   Clear
5:34 PM 78.8 °F - 60.8 °F 54% 29.81 in 10.0 mi NW 12.7 mph - N/A   Scattered Clouds
5:54 PM 78.8 °F - 64.4 °F 61% 29.82 in 10.0 mi NW 10.4 mph - N/A   Scattered Clouds
6:09 PM 78.8 °F - 64.4 °F 61% 29.83 in 10.0 mi NNW 8.1 mph - N/A   Scattered Clouds
6:32 PM 77.0 °F - 62.6 °F 61% 29.83 in 10.0 mi WNW 8.1 mph - N/A   Mostly Cloudy
6:52 PM 75.2 °F - 60.8 °F 61% 29.84 in 10.0 mi NW 8.1 mph - N/A   Scattered Clouds
7:12 PM 75.2 °F - 60.8 °F 61% 29.85 in 10.0 mi WNW 6.9 mph - N/A   Mostly Cloudy
7:32 PM 73.4 °F - 60.8 °F 65% 29.85 in 10.0 mi WNW 6.9 mph - N/A   Mostly Cloudy
7:52 PM 71.6 °F - 60.8 °F 69% 29.85 in 10.0 mi WNW 4.6 mph - N/A   Scattered Clouds
8:32 PM 69.8 °F - 60.8 °F 73% 29.87 in 10.0 mi WNW 6.9 mph - N/A   Clear
8:52 PM 68.0 °F - 60.8 °F 78% 29.88 in 10.0 mi NW 5.8 mph - N/A   Clear
9:12 PM 68.0 °F - 60.8 °F 78% 29.89 in 10.0 mi North 4.6 mph - N/A   Clear
9:33 PM 66.2 °F - 60.8 °F 83% 29.90 in 10.0 mi NNW 6.9 mph - N/A   Clear
9:53 PM 66.2 °F - 60.8 °F 83% 29.90 in 10.0 mi NNW 5.8 mph - N/A   Clear
10:13 PM 64.4 °F - 60.8 °F 88% 29.91 in 10.0 mi NNW 5.8 mph - N/A   Mostly Cloudy
10:33 PM 64.4 °F - 60.8 °F 88% 29.91 in 10.0 mi NNW 4.6 mph - N/A   Mostly Cloudy
10:53 PM 64.4 °F - 62.6 °F 94% 29.91 in 10.0 mi Calm Calm - N/A   Mostly Cloudy
11:13 PM 64.4 °F - 60.8 °F 88% 29.92 in 10.0 mi NNW 4.6 mph - N/A   Overcast
11:33 PM 62.6 °F - 60.8 °F 94% 29.93 in 10.0 mi NNW 5.8 mph - N/A   Overcast
11:54 PM 64.4 °F - 57.2 °F 77% 29.93 in 10.0 mi NNW 5.8 mph - N/A   Overcast